DELTA 1 DEB, 8542

Orbit data source: Space-Track

DELTA 1 DEB, 8542 is space debris in SSO originally from a launch on Sun, 23 Jul 1972 UTC launched from the Air Force Western Test Range (AFWTR). Debris objects in space refer to the collection of defunct objects orbiting the Earth. Examples of debris include non-operational satellites, rocket bodies, and fragments generated from explosions, collisions, or faulty payload assembly.

Loading next visibility...
Identifier
8542, 1972-058GR
Orbit
SSO
Country
Flag of USUS
Related business
Manufacturer
Unknown
Mission
Spacecraft
Bus & Motor
Unknown
Mass
Unknown
Launch date (UTC)
1972-07-23 (53 years ago)
Launch vehicle
Unknown
Launch site
Air Force Western Test Range (AFWTR)
Object type
Payload
Rocket body
Debris
Shape & HBR
Unknown shape, 0.2 m
Radar Cross Section
Small (<0.1 m²)

Expand to show TLE details & history
Last TLE update: 16 hours ago

TLE from 16 hours ago
0 DELTA 1 DEB
1 08542U 72058GR  25351.72893310  .00000460  00000-0  26542-3 0  9992
2 08542  97.9769 252.7597 0350530 286.4153  69.8752 13.86479493681163
Epoch: 2025-12-17T17:29Z
TLE epoch observation values (Epoch: 2025-12-17T17:29:39.819Z)
Latitude
-0.00011°
Longitude
-96.25082°
Altitude
863.67 km
Speed
7.461 km/s
True Right ascension
16h 51m 02s
True Declination
0° 00' 00"
Sunlit
Object was in daylight at epoch
Visualization orbit readout
Latitude
Unknown
Longitude
Unknown
Altitude
Unknown
Speed
Unknown
Apparent Right ascension
Unknown
Apparent Declination
Unknown
Sunlit
N/A
Visualization observer readout
Local Sidereal Time
08:05:38
Azimuth
Unknown
Elevation
Unknown
Doppler factor
Unknown
Orbital elements
Apogee altitude
1,194.618 km
Perigee altitude
681.701 km
Semi-major axis
7,316.297 km
Eccentricity
0.03505
Inclination
97.9769°
RAAN
252.7597°
Arg. of periapsis
286.4153°
True anomaly
73.70158°
Mean anomaly
69.8752°
Eccentric anomaly
71.78293°
Mean motion
3.46822 °/min
Orbital period
103.8 mins
BSTAR
0.00026542
Loading maneuver chart data...
Computing Atmospheric mass density...
Loading historical data...
Loading historical data...
Loading historical data...
Loading historical data...
Loading historical data...
Loading historical data...
Loading historical data...

Documentation

Showing up to 5 results
|